Year,Month,Day,Hour,Minute,Value (Times are PST for temperature in C)
2012,08,16,00,00,18.60
2012,08,16,00,01,18.60
2012,08,16,00,02,18.60
2012,08,16,00,03,18.60
2012,08,16,00,04,18.60
2012,08,16,00,05,18.60
2012,08,16,00,06,18.60
2012,08,16,00,07,18.60
2012,08,16,00,08,18.60
2012,08,16,00,09,18.60
2012,08,16,00,10,18.60
2012,08,16,00,11,18.60
2012,08,16,00,12,18.50
2012,08,16,00,13,18.50
2012,08,16,00,14,18.50
2012,08,16,00,15,18.50
2012,08,16,00,16,18.50
2012,08,16,00,17,18.40
2012,08,16,00,18,18.40
2012,08,16,00,19,18.40
2012,08,16,00,20,18.40
2012,08,16,00,21,18.30
2012,08,16,00,22,18.30
2012,08,16,00,23,18.30
2012,08,16,00,24,18.30
2012,08,16,00,25,18.30
2012,08,16,00,26,18.30
2012,08,16,00,27,18.20
2012,08,16,00,28,18.20
2012,08,16,00,29,18.20
2012,08,16,00,30,18.20
2012,08,16,00,31,18.20
2012,08,16,00,32,18.20
2012,08,16,00,33,18.20
2012,08,16,00,34,18.20
2012,08,16,00,35,18.20
2012,08,16,00,36,18.20
2012,08,16,00,37,18.20
2012,08,16,00,38,18.20
2012,08,16,00,39,18.10
2012,08,16,00,40,18.10
2012,08,16,00,41,18.10
2012,08,16,00,42,18.10
2012,08,16,00,43,18.10
2012,08,16,00,44,18.10
2012,08,16,00,45,18.10
2012,08,16,00,46,18.10
2012,08,16,00,47,18.10
2012,08,16,00,48,18.00
2012,08,16,00,49,18.00
2012,08,16,00,50,18.00
2012,08,16,00,51,18.00
2012,08,16,00,52,18.00
2012,08,16,00,53,17.90
2012,08,16,00,54,17.90
2012,08,16,00,55,17.90
2012,08,16,00,56,17.90
2012,08,16,00,57,17.90
2012,08,16,00,58,17.90
2012,08,16,00,59,17.90
2012,08,16,01,00,17.90
2012,08,16,01,01,17.90
2012,08,16,01,02,17.90
2012,08,16,01,03,17.90
2012,08,16,01,04,17.90
2012,08,16,01,05,17.90
2012,08,16,01,06,17.90
2012,08,16,01,07,17.90
2012,08,16,01,08,17.90
2012,08,16,01,09,17.90
2012,08,16,01,10,17.90
2012,08,16,01,11,17.90
2012,08,16,01,12,17.90
2012,08,16,01,13,17.90
2012,08,16,01,14,17.90
2012,08,16,01,15,17.80
2012,08,16,01,16,17.80
2012,08,16,01,17,17.80
2012,08,16,01,18,17.80
2012,08,16,01,19,17.80
2012,08,16,01,20,17.80
2012,08,16,01,21,17.70
2012,08,16,01,22,17.70
2012,08,16,01,23,17.70
2012,08,16,01,24,17.70
2012,08,16,01,25,17.60
2012,08,16,01,26,17.60
2012,08,16,01,27,17.60
2012,08,16,01,28,17.60
2012,08,16,01,29,17.60
2012,08,16,01,30,17.60
2012,08,16,01,31,17.50
2012,08,16,01,32,17.50
2012,08,16,01,33,17.50
2012,08,16,01,34,17.50
2012,08,16,01,35,17.50
2012,08,16,01,36,17.40
2012,08,16,01,37,17.40
2012,08,16,01,38,17.40
2012,08,16,01,39,17.40
2012,08,16,01,40,17.40
2012,08,16,01,41,17.30
2012,08,16,01,42,17.30
2012,08,16,01,43,17.30
2012,08,16,01,44,17.30
2012,08,16,01,45,17.30
2012,08,16,01,46,17.30
2012,08,16,01,47,17.30
2012,08,16,01,48,17.30
2012,08,16,01,49,17.20
2012,08,16,01,50,17.20
2012,08,16,01,51,17.20
2012,08,16,01,52,17.20
2012,08,16,01,53,17.20
2012,08,16,01,54,17.20
2012,08,16,01,55,17.20
2012,08,16,01,56,17.20
2012,08,16,01,57,17.20
2012,08,16,01,58,17.20
2012,08,16,01,59,17.20
2012,08,16,02,00,17.20
2012,08,16,02,01,17.10
2012,08,16,02,02,17.10
2012,08,16,02,03,17.10
2012,08,16,02,04,17.10
2012,08,16,02,05,17.10
2012,08,16,02,06,17.10
2012,08,16,02,07,17.10
2012,08,16,02,08,17.10
2012,08,16,02,09,17.10
2012,08,16,02,10,17.10
2012,08,16,02,11,17.10
2012,08,16,02,12,17.00
2012,08,16,02,13,17.00
2012,08,16,02,14,17.00
2012,08,16,02,15,16.90
2012,08,16,02,16,16.90
2012,08,16,02,17,16.90
2012,08,16,02,18,16.90
2012,08,16,02,19,16.90
2012,08,16,02,20,16.90
2012,08,16,02,21,16.90
2012,08,16,02,22,16.90
2012,08,16,02,23,16.90
2012,08,16,02,24,16.90
2012,08,16,02,25,16.90
2012,08,16,02,26,16.80
2012,08,16,02,27,16.80
2012,08,16,02,28,16.80
2012,08,16,02,29,16.80
2012,08,16,02,30,16.80
2012,08,16,02,31,16.80
2012,08,16,02,32,16.80
2012,08,16,02,33,16.80
2012,08,16,02,34,16.80
2012,08,16,02,35,16.80
2012,08,16,02,36,16.80
2012,08,16,02,37,16.80
2012,08,16,02,38,16.80
2012,08,16,02,39,16.80
2012,08,16,02,40,16.80
2012,08,16,02,41,16.80
2012,08,16,02,42,16.80
2012,08,16,02,43,16.80
2012,08,16,02,44,16.80
2012,08,16,02,45,16.80
2012,08,16,02,46,16.80
2012,08,16,02,47,16.80
2012,08,16,02,48,16.80
2012,08,16,02,49,16.90
2012,08,16,02,50,16.90
2012,08,16,02,51,16.90
2012,08,16,02,52,17.00
2012,08,16,02,53,17.00
2012,08,16,02,54,17.00
2012,08,16,02,55,17.10
2012,08,16,02,56,17.10
2012,08,16,02,57,17.10
2012,08,16,02,58,17.20
2012,08,16,02,59,17.20
2012,08,16,03,00,17.20
2012,08,16,03,01,17.30
2012,08,16,03,02,17.30
2012,08,16,03,03,17.40
2012,08,16,03,06,17.60
2012,08,16,03,07,17.60
2012,08,16,03,08,17.70
2012,08,16,03,09,17.80
2012,08,16,03,10,17.90
2012,08,16,03,11,17.90
2012,08,16,03,12,18.00
2012,08,16,03,13,18.00
2012,08,16,03,14,18.10
2012,08,16,03,15,18.10
2012,08,16,03,16,18.10
2012,08,16,03,17,18.20
2012,08,16,03,18,18.30
2012,08,16,03,19,18.30
2012,08,16,03,20,18.40
2012,08,16,03,21,18.40
2012,08,16,03,22,18.50
2012,08,16,03,23,18.50
2012,08,16,03,24,18.60
2012,08,16,03,25,18.60
2012,08,16,03,26,18.60
2012,08,16,03,27,18.60
2012,08,16,03,28,18.60
2012,08,16,03,29,18.60
2012,08,16,03,30,18.70
2012,08,16,03,31,18.70
2012,08,16,03,32,18.70
2012,08,16,03,33,18.70
2012,08,16,03,34,18.70
2012,08,16,03,35,18.70
2012,08,16,03,36,18.70
2012,08,16,03,37,18.70
2012,08,16,03,38,18.70
2012,08,16,03,39,18.70
2012,08,16,03,40,18.70
2012,08,16,03,41,18.70
2012,08,16,03,42,18.70
2012,08,16,03,43,18.70
2012,08,16,03,44,18.70
2012,08,16,03,45,18.70
2012,08,16,03,46,18.70
2012,08,16,03,47,18.70
2012,08,16,03,48,18.70
2012,08,16,03,49,18.70
2012,08,16,03,50,18.70
2012,08,16,03,51,18.60
2012,08,16,03,52,18.60
2012,08,16,03,53,18.60
2012,08,16,03,54,18.60
2012,08,16,03,55,18.60
2012,08,16,03,56,18.60
2012,08,16,03,57,18.50
2012,08,16,03,58,18.50
2012,08,16,03,59,18.40
2012,08,16,04,00,18.40
2012,08,16,04,01,18.40
2012,08,16,04,02,18.40
2012,08,16,04,03,18.40
2012,08,16,04,04,18.40
2012,08,16,04,05,18.40
2012,08,16,04,06,18.40
2012,08,16,04,07,18.30
2012,08,16,04,08,18.30
2012,08,16,04,09,18.30
2012,08,16,04,10,18.30
2012,08,16,04,11,18.30
2012,08,16,04,12,18.30
2012,08,16,04,13,18.20
2012,08,16,04,14,18.20
2012,08,16,04,15,18.10
2012,08,16,04,16,18.10
2012,08,16,04,17,18.00
2012,08,16,04,18,18.00
2012,08,16,04,19,17.90
2012,08,16,04,20,17.90
2012,08,16,04,21,17.80
2012,08,16,04,22,17.80
2012,08,16,04,23,17.70
2012,08,16,04,24,17.70
2012,08,16,04,25,17.70
2012,08,16,04,26,17.60
2012,08,16,04,27,17.60
2012,08,16,04,28,17.60
2012,08,16,04,29,17.50
2012,08,16,04,30,17.50
2012,08,16,04,31,17.50
2012,08,16,04,32,17.50
2012,08,16,04,33,17.40
2012,08,16,04,34,17.40
2012,08,16,04,35,17.40
2012,08,16,04,36,17.40
2012,08,16,04,37,17.40
2012,08,16,04,38,17.40
2012,08,16,04,39,17.40
2012,08,16,04,40,17.50
2012,08,16,04,41,17.50
2012,08,16,04,42,17.50
2012,08,16,04,43,17.60
2012,08,16,04,44,17.60
2012,08,16,04,45,17.70
2012,08,16,04,46,17.70
2012,08,16,04,47,17.70
2012,08,16,04,48,17.70
2012,08,16,04,49,17.80
2012,08,16,04,50,17.80
2012,08,16,04,51,17.80
2012,08,16,04,52,17.80
2012,08,16,04,53,17.80
2012,08,16,04,54,17.80
2012,08,16,04,55,17.80
2012,08,16,04,56,17.70
2012,08,16,04,57,17.70
2012,08,16,04,58,17.70
2012,08,16,04,59,17.60
2012,08,16,05,00,17.60
2012,08,16,05,01,17.50
2012,08,16,05,02,17.50
2012,08,16,05,03,17.40
2012,08,16,05,04,17.40
2012,08,16,05,05,17.30
2012,08,16,05,06,17.20
2012,08,16,05,07,17.20
2012,08,16,05,08,17.20
2012,08,16,05,09,17.10
2012,08,16,05,10,17.10
2012,08,16,05,11,17.00
2012,08,16,05,12,17.00
2012,08,16,05,13,16.90
2012,08,16,05,14,16.90
2012,08,16,05,15,16.80
2012,08,16,05,16,16.80
2012,08,16,05,17,16.80
2012,08,16,05,18,16.80
2012,08,16,05,19,16.80
2012,08,16,05,20,16.80
2012,08,16,05,21,16.80
2012,08,16,05,22,16.80
2012,08,16,05,23,16.80
2012,08,16,05,24,16.80
2012,08,16,05,25,16.80
2012,08,16,05,26,16.80
2012,08,16,05,27,16.80
2012,08,16,05,28,16.80
2012,08,16,05,29,16.80
2012,08,16,05,30,16.80
2012,08,16,05,31,16.80
2012,08,16,05,32,16.80
2012,08,16,05,33,16.80
2012,08,16,05,34,16.80
2012,08,16,05,35,16.80
2012,08,16,05,36,16.80
2012,08,16,05,37,16.80
2012,08,16,05,38,16.80
2012,08,16,05,39,16.80
2012,08,16,05,40,16.80
2012,08,16,05,41,16.80
2012,08,16,05,42,16.80
2012,08,16,05,43,16.90
2012,08,16,05,44,16.90
2012,08,16,05,45,17.00
2012,08,16,05,46,17.00
2012,08,16,05,47,17.10
2012,08,16,05,48,17.10
2012,08,16,05,49,17.20
2012,08,16,05,50,17.30
2012,08,16,05,51,17.30
2012,08,16,05,52,17.40
2012,08,16,05,53,17.50
2012,08,16,05,54,17.50
2012,08,16,05,55,17.60
2012,08,16,05,56,17.60
2012,08,16,05,57,17.70
2012,08,16,05,58,17.80
2012,08,16,05,59,17.80
2012,08,16,06,00,17.80
2012,08,16,06,01,17.80
2012,08,16,06,02,17.80
2012,08,16,06,03,17.80
2012,08,16,06,04,17.80
2012,08,16,06,05,17.80
2012,08,16,06,06,17.80
2012,08,16,06,07,17.80
2012,08,16,06,08,17.80
2012,08,16,06,09,17.80
2012,08,16,06,10,17.70
2012,08,16,06,11,17.70
2012,08,16,06,12,17.70
2012,08,16,06,13,17.60
2012,08,16,06,14,17.50
2012,08,16,06,15,17.50
2012,08,16,06,16,17.40
2012,08,16,06,17,17.40
2012,08,16,06,18,17.30
2012,08,16,06,19,17.30
2012,08,16,06,20,17.20
2012,08,16,06,21,17.20
2012,08,16,06,22,17.20
2012,08,16,06,23,17.10
2012,08,16,06,24,17.10
2012,08,16,06,25,17.10
2012,08,16,06,26,17.00
2012,08,16,06,27,17.00
2012,08,16,06,28,16.90
2012,08,16,06,29,16.90
2012,08,16,06,30,16.90
2012,08,16,06,31,16.90
2012,08,16,06,32,16.80
2012,08,16,06,33,16.80
2012,08,16,06,34,16.80
2012,08,16,06,35,16.80
2012,08,16,06,36,16.70
2012,08,16,06,37,16.70
2012,08,16,06,38,16.70
2012,08,16,06,39,16.70
2012,08,16,06,40,16.70
2012,08,16,06,41,16.70
2012,08,16,06,42,16.70
2012,08,16,06,43,16.70
2012,08,16,06,44,16.70
2012,08,16,06,45,16.70
2012,08,16,06,46,16.70
2012,08,16,06,47,16.70
2012,08,16,06,48,16.70
2012,08,16,06,49,16.70
2012,08,16,06,50,16.80
2012,08,16,06,51,16.80
2012,08,16,06,52,16.80
2012,08,16,06,53,16.80
2012,08,16,06,54,16.80
2012,08,16,06,55,16.80
2012,08,16,06,56,16.90
2012,08,16,06,57,16.90
2012,08,16,06,58,16.90
2012,08,16,06,59,16.90
2012,08,16,07,00,17.00
2012,08,16,07,01,17.00
2012,08,16,07,02,17.00
2012,08,16,07,03,17.00
2012,08,16,07,04,17.10
2012,08,16,07,05,17.10
2012,08,16,07,06,17.10
2012,08,16,07,07,17.20
2012,08,16,07,08,17.20
2012,08,16,07,09,17.30
2012,08,16,07,10,17.30
2012,08,16,07,11,17.30
2012,08,16,07,12,17.40
2012,08,16,07,13,17.40
2012,08,16,07,14,17.40
2012,08,16,07,15,17.50
2012,08,16,07,16,17.50
2012,08,16,07,17,17.50
2012,08,16,07,18,17.50
2012,08,16,07,19,17.60
2012,08,16,07,20,17.60
2012,08,16,07,21,17.60
2012,08,16,07,22,17.70
2012,08,16,07,23,17.70
2012,08,16,07,24,17.80
2012,08,16,07,25,17.90
2012,08,16,07,26,18.00
2012,08,16,07,27,18.00
2012,08,16,07,28,18.10
2012,08,16,07,29,18.20
2012,08,16,07,30,18.20
2012,08,16,07,31,18.20
2012,08,16,07,32,18.30
2012,08,16,07,33,18.40
2012,08,16,07,34,18.50
2012,08,16,07,35,18.50
2012,08,16,07,36,18.60
2012,08,16,07,37,18.60
2012,08,16,07,38,18.70
2012,08,16,07,39,18.70
2012,08,16,07,40,18.80
2012,08,16,07,41,18.90
2012,08,16,07,42,18.90
2012,08,16,07,43,19.00
2012,08,16,07,44,19.10
2012,08,16,07,45,19.10
2012,08,16,07,46,19.20
2012,08,16,07,47,19.30
2012,08,16,07,48,19.30
2012,08,16,07,49,19.30
2012,08,16,07,50,19.40
2012,08,16,07,51,19.40
2012,08,16,07,52,19.40
2012,08,16,07,53,19.50
2012,08,16,07,54,19.50
2012,08,16,07,55,19.60
2012,08,16,07,56,19.60
2012,08,16,07,57,19.70
2012,08,16,07,58,19.70
2012,08,16,07,59,19.80
2012,08,16,08,00,19.80
2012,08,16,08,01,19.90
2012,08,16,08,02,19.90
2012,08,16,08,03,20.00
2012,08,16,08,04,20.00
2012,08,16,08,05,20.10
2012,08,16,08,06,20.20
2012,08,16,08,07,20.30
2012,08,16,08,08,20.40
2012,08,16,08,09,20.40
2012,08,16,08,10,20.50
2012,08,16,08,11,20.60
2012,08,16,08,12,20.70
2012,08,16,08,13,20.80
2012,08,16,08,14,20.90
2012,08,16,08,15,20.90
2012,08,16,08,16,21.00
2012,08,16,08,17,21.10
2012,08,16,08,18,21.20
2012,08,16,08,19,21.30
2012,08,16,08,20,21.40
2012,08,16,08,21,21.50
2012,08,16,08,22,21.60
2012,08,16,08,23,21.70
2012,08,16,08,24,21.80
2012,08,16,08,25,21.90
2012,08,16,08,26,22.00
2012,08,16,08,27,22.10
2012,08,16,08,28,22.20
2012,08,16,08,29,22.30
2012,08,16,08,30,22.40
2012,08,16,08,31,22.50
2012,08,16,08,32,22.60
2012,08,16,08,33,22.70
2012,08,16,08,34,22.70
2012,08,16,08,35,22.80
2012,08,16,08,36,22.90
2012,08,16,08,37,22.90
2012,08,16,08,38,23.00
2012,08,16,08,39,23.10
2012,08,16,08,40,23.20
2012,08,16,08,41,23.30
2012,08,16,08,42,23.40
2012,08,16,08,43,23.40
2012,08,16,08,44,23.40
2012,08,16,08,45,23.50
2012,08,16,08,46,23.60
2012,08,16,08,47,23.70
2012,08,16,08,48,23.70
2012,08,16,08,49,23.80
2012,08,16,08,50,23.80
2012,08,16,08,51,23.90
2012,08,16,08,52,23.90
2012,08,16,08,53,23.90
2012,08,16,08,54,24.00
2012,08,16,08,55,24.10
2012,08,16,08,56,24.10
2012,08,16,08,57,24.10
2012,08,16,08,58,24.10
2012,08,16,08,59,24.10
2012,08,16,09,00,24.10
2012,08,16,09,01,24.20
2012,08,16,09,02,24.20
2012,08,16,09,03,24.30
2012,08,16,09,04,24.30
2012,08,16,09,05,24.40
2012,08,16,09,06,24.50
2012,08,16,09,07,24.50
2012,08,16,09,08,24.60
2012,08,16,09,09,24.60
2012,08,16,09,10,24.70
2012,08,16,09,11,24.70
2012,08,16,09,12,24.70
2012,08,16,09,13,24.80
2012,08,16,09,14,24.80
2012,08,16,09,15,24.80
2012,08,16,09,16,24.90
2012,08,16,09,17,24.90
2012,08,16,09,18,24.90
2012,08,16,09,19,24.90
2012,08,16,09,20,24.90
2012,08,16,09,21,25.00
2012,08,16,09,22,25.00
2012,08,16,09,23,25.00
2012,08,16,09,24,25.10
2012,08,16,09,25,25.10
2012,08,16,09,26,25.10
2012,08,16,09,27,25.10
2012,08,16,09,28,25.20
2012,08,16,09,29,25.20
2012,08,16,09,30,25.30
2012,08,16,09,31,25.40
2012,08,16,09,32,25.50
2012,08,16,09,33,25.60
2012,08,16,09,34,25.60
2012,08,16,09,35,25.70
2012,08,16,09,36,25.70
2012,08,16,09,37,25.70
2012,08,16,09,38,25.70
2012,08,16,09,39,25.80
2012,08,16,09,40,25.80
2012,08,16,09,41,25.80
2012,08,16,09,42,25.80
2012,08,16,09,43,25.70
2012,08,16,09,44,25.70
2012,08,16,09,45,25.70
2012,08,16,09,46,25.70
2012,08,16,09,47,25.70
2012,08,16,09,48,25.70
2012,08,16,09,49,25.80
2012,08,16,09,50,25.80
2012,08,16,09,51,25.80
2012,08,16,09,52,25.90
2012,08,16,09,53,25.90
2012,08,16,09,54,25.90
2012,08,16,09,55,25.90
2012,08,16,09,56,25.90
2012,08,16,09,57,26.00
2012,08,16,09,58,26.00
2012,08,16,09,59,26.00
2012,08,16,10,00,26.10
2012,08,16,10,01,26.10
2012,08,16,10,02,26.10
2012,08,16,10,03,26.20
2012,08,16,10,04,26.20
2012,08,16,10,05,26.20
2012,08,16,10,06,26.20
2012,08,16,10,07,26.20
2012,08,16,10,08,26.20
2012,08,16,10,09,26.30
2012,08,16,10,10,26.30
2012,08,16,10,11,26.40
2012,08,16,10,12,26.40
2012,08,16,10,13,26.50
2012,08,16,10,14,26.60
2012,08,16,10,15,26.60
2012,08,16,10,16,26.70
2012,08,16,10,17,26.70
2012,08,16,10,18,26.80
2012,08,16,10,19,26.80
2012,08,16,10,20,26.90
2012,08,16,10,21,26.90
2012,08,16,10,22,26.90
2012,08,16,10,23,26.90
2012,08,16,10,24,26.80
2012,08,16,10,25,26.80
2012,08,16,10,26,26.70
2012,08,16,10,27,26.60
2012,08,16,10,28,26.60
2012,08,16,10,29,26.50
2012,08,16,10,30,26.50
2012,08,16,10,31,26.50
2012,08,16,10,32,26.40
2012,08,16,10,33,26.50
2012,08,16,10,34,26.50
2012,08,16,10,35,26.60
2012,08,16,10,36,26.60
2012,08,16,10,37,26.70
2012,08,16,10,38,26.80
2012,08,16,10,39,26.80
2012,08,16,10,40,26.90
2012,08,16,10,41,27.00
2012,08,16,10,42,27.10
2012,08,16,10,43,27.10
2012,08,16,10,44,27.10
2012,08,16,10,45,27.10
2012,08,16,10,46,27.10
2012,08,16,10,47,27.10
2012,08,16,10,48,27.10
2012,08,16,10,49,27.00
2012,08,16,10,50,27.10
2012,08,16,10,51,27.10
2012,08,16,10,52,27.20
2012,08,16,10,53,27.30
2012,08,16,10,54,27.40
2012,08,16,10,55,27.40
2012,08,16,10,56,27.50
2012,08,16,10,57,27.60
2012,08,16,10,58,27.70
2012,08,16,10,59,27.70
2012,08,16,11,00,27.80
2012,08,16,11,01,27.90
2012,08,16,11,02,27.90
2012,08,16,11,03,28.00
2012,08,16,11,04,28.10
2012,08,16,11,05,28.20
2012,08,16,11,06,28.20
2012,08,16,11,07,28.30
2012,08,16,11,08,28.30
2012,08,16,11,09,28.30
2012,08,16,11,10,28.30
2012,08,16,11,11,28.30
2012,08,16,11,12,28.40
2012,08,16,11,13,28.50
2012,08,16,11,14,28.50
2012,08,16,11,15,28.50
2012,08,16,11,16,28.50
2012,08,16,11,17,28.40
2012,08,16,11,18,28.30
2012,08,16,11,19,28.20
2012,08,16,11,20,28.20
2012,08,16,11,21,28.10
2012,08,16,11,22,28.10
2012,08,16,11,23,28.00
2012,08,16,11,24,27.90
2012,08,16,11,25,27.80
2012,08,16,11,26,27.70
2012,08,16,11,27,27.70
2012,08,16,11,28,27.80
2012,08,16,11,29,27.80
2012,08,16,11,30,27.90
2012,08,16,11,31,28.00
2012,08,16,11,32,28.10
2012,08,16,11,33,28.20
2012,08,16,11,34,28.20
2012,08,16,11,35,28.30
2012,08,16,11,36,28.40
2012,08,16,11,37,28.40
2012,08,16,11,38,28.40
2012,08,16,11,39,28.40
2012,08,16,11,40,28.40
2012,08,16,11,41,28.40
2012,08,16,11,42,28.50
2012,08,16,11,43,28.60
2012,08,16,11,44,28.60
2012,08,16,11,45,28.70
2012,08,16,11,46,28.70
2012,08,16,11,47,28.80
2012,08,16,11,48,28.80
2012,08,16,11,49,28.90
2012,08,16,11,50,28.90
2012,08,16,11,51,29.00
2012,08,16,11,52,29.10
2012,08,16,11,53,29.20
2012,08,16,11,54,29.30
2012,08,16,11,55,29.40
2012,08,16,11,56,29.40
2012,08,16,11,57,29.40
2012,08,16,11,58,29.30
2012,08,16,11,59,29.20
2012,08,16,12,00,29.10
2012,08,16,12,01,29.10
2012,08,16,12,02,29.10
2012,08,16,12,03,29.10
2012,08,16,12,04,29.10
2012,08,16,12,05,29.10
2012,08,16,12,06,29.20
2012,08,16,12,07,29.20
2012,08,16,12,08,29.20
2012,08,16,12,09,29.30
2012,08,16,12,10,29.30
2012,08,16,12,11,29.30
2012,08,16,12,12,29.30
2012,08,16,12,13,29.30
2012,08,16,12,14,29.40
2012,08,16,12,15,29.40
2012,08,16,12,16,29.50
2012,08,16,12,17,29.50
2012,08,16,12,18,29.50
2012,08,16,12,19,29.60
2012,08,16,12,20,29.60
2012,08,16,12,21,29.70
2012,08,16,12,22,29.70
2012,08,16,12,23,29.80
2012,08,16,12,24,29.80
2012,08,16,12,25,29.80
2012,08,16,12,26,29.70
2012,08,16,12,27,29.60
2012,08,16,12,28,29.60
2012,08,16,12,29,29.60
2012,08,16,12,30,29.70
2012,08,16,12,31,29.70
2012,08,16,12,32,29.70
2012,08,16,12,33,29.70
2012,08,16,12,34,29.70
2012,08,16,12,35,29.70
2012,08,16,12,36,29.70
2012,08,16,12,37,29.60
2012,08,16,12,38,29.60
2012,08,16,12,39,29.70
2012,08,16,12,40,29.70
2012,08,16,12,41,29.70
2012,08,16,12,42,29.80
2012,08,16,12,43,29.80
2012,08,16,12,44,29.80
2012,08,16,12,45,29.80
2012,08,16,12,46,29.70
2012,08,16,12,47,29.60
2012,08,16,12,48,29.50
2012,08,16,12,49,29.30
2012,08,16,12,50,29.10
2012,08,16,12,51,28.90
2012,08,16,12,52,28.80
2012,08,16,12,53,28.70
2012,08,16,12,54,28.60
2012,08,16,12,55,28.50
2012,08,16,12,56,28.50
2012,08,16,12,57,28.40
2012,08,16,12,58,28.40
2012,08,16,12,59,28.30
2012,08,16,13,00,28.30
2012,08,16,13,01,28.30
2012,08,16,13,02,28.30
2012,08,16,13,03,28.30
2012,08,16,13,04,28.30
2012,08,16,13,05,28.40
2012,08,16,13,06,28.40
2012,08,16,13,07,28.40
2012,08,16,13,08,28.50
2012,08,16,13,09,28.50
2012,08,16,13,10,28.50
2012,08,16,13,11,28.50
2012,08,16,13,12,28.50
2012,08,16,13,13,28.50
2012,08,16,13,14,28.40
2012,08,16,13,15,28.40
2012,08,16,13,16,28.50
2012,08,16,13,17,28.50
2012,08,16,13,18,28.50
2012,08,16,13,19,28.50
2012,08,16,13,20,28.50
2012,08,16,13,21,28.50
2012,08,16,13,22,28.50
2012,08,16,13,23,28.50
2012,08,16,13,24,28.50
2012,08,16,13,25,28.50
2012,08,16,13,26,28.50
2012,08,16,13,27,28.50
2012,08,16,13,28,28.60
2012,08,16,13,29,28.60
2012,08,16,13,30,28.60
2012,08,16,13,31,28.60
2012,08,16,13,32,28.70
2012,08,16,13,33,28.70
2012,08,16,13,34,28.80
2012,08,16,13,35,28.80
2012,08,16,13,36,28.80
2012,08,16,13,37,28.80
2012,08,16,13,38,28.80
2012,08,16,13,39,28.70
2012,08,16,13,40,28.60
2012,08,16,13,41,28.60
2012,08,16,13,42,28.60
2012,08,16,13,43,28.60
2012,08,16,13,44,28.60
2012,08,16,13,45,28.60
2012,08,16,13,46,28.60
2012,08,16,13,47,28.60
2012,08,16,13,48,28.70
2012,08,16,13,49,28.70
2012,08,16,13,50,28.80
2012,08,16,13,51,28.80
2012,08,16,13,52,28.80
2012,08,16,13,53,28.80
2012,08,16,13,54,28.80
2012,08,16,13,55,28.80
2012,08,16,13,56,28.90
2012,08,16,13,57,28.90
2012,08,16,13,58,28.90
2012,08,16,13,59,28.90
2012,08,16,14,00,29.00
2012,08,16,14,01,29.00
2012,08,16,14,02,29.00
2012,08,16,14,03,29.00
2012,08,16,14,04,29.00
2012,08,16,14,05,29.10
2012,08,16,14,06,29.10
2012,08,16,14,07,29.20
2012,08,16,14,08,29.20
2012,08,16,14,09,29.20
2012,08,16,14,10,29.30
2012,08,16,14,11,29.30
2012,08,16,14,12,29.30
2012,08,16,14,13,29.40
2012,08,16,14,14,29.40
2012,08,16,14,15,29.40
2012,08,16,14,16,29.40
2012,08,16,14,17,29.40
2012,08,16,14,18,29.50
2012,08,16,14,19,29.60
2012,08,16,14,20,29.60
2012,08,16,14,21,29.60
2012,08,16,14,22,29.60
2012,08,16,14,23,29.60
2012,08,16,14,24,29.70
2012,08,16,14,25,29.70
2012,08,16,14,26,29.70
2012,08,16,14,27,29.70
2012,08,16,14,28,29.80
2012,08,16,14,29,29.80
2012,08,16,14,30,29.80
2012,08,16,14,31,29.70
2012,08,16,14,32,29.70
2012,08,16,14,33,29.60
2012,08,16,14,34,29.50
2012,08,16,14,35,29.40
2012,08,16,14,36,29.40
2012,08,16,14,37,29.30
2012,08,16,14,38,29.30
2012,08,16,14,39,29.30
2012,08,16,14,40,29.20
2012,08,16,14,41,29.20
2012,08,16,14,42,29.20
2012,08,16,14,43,29.20
2012,08,16,14,44,29.20
2012,08,16,14,45,29.20
2012,08,16,14,46,29.20
2012,08,16,14,47,29.20
2012,08,16,14,48,29.20
2012,08,16,14,49,29.30
2012,08,16,14,50,29.30
2012,08,16,14,51,29.40
2012,08,16,14,52,29.50
2012,08,16,14,53,29.60
2012,08,16,14,54,29.60
2012,08,16,14,55,29.60
2012,08,16,14,56,29.70
2012,08,16,14,57,29.70
2012,08,16,14,58,29.70
2012,08,16,14,59,29.70
2012,08,16,15,00,29.70
2012,08,16,15,01,29.70
2012,08,16,15,02,29.70
2012,08,16,15,03,29.70
2012,08,16,15,04,29.60
2012,08,16,15,05,29.60
2012,08,16,15,06,29.60
2012,08,16,15,07,29.50
2012,08,16,15,08,29.50
2012,08,16,15,09,29.40
2012,08,16,15,10,29.50
2012,08,16,15,11,29.50
2012,08,16,15,12,29.60
2012,08,16,15,13,29.50
2012,08,16,15,14,29.50
2012,08,16,15,15,29.60
2012,08,16,15,16,29.60
2012,08,16,15,17,29.70
2012,08,16,15,18,29.70
2012,08,16,15,19,29.70
2012,08,16,15,20,29.60
2012,08,16,15,21,29.60
2012,08,16,15,22,29.60
2012,08,16,15,23,29.60
2012,08,16,15,24,29.50
2012,08,16,15,25,29.50
2012,08,16,15,26,29.40
2012,08,16,15,27,29.40
2012,08,16,15,28,29.40
2012,08,16,15,29,29.40
2012,08,16,15,30,29.40
2012,08,16,15,31,29.40
2012,08,16,15,32,29.40
2012,08,16,15,33,29.40
2012,08,16,15,34,29.40
2012,08,16,15,35,29.40
2012,08,16,15,36,29.40
2012,08,16,15,37,29.40
2012,08,16,15,38,29.40
2012,08,16,15,39,29.40
2012,08,16,15,40,29.40
2012,08,16,15,41,29.40
2012,08,16,15,42,29.50
2012,08,16,15,43,29.50
2012,08,16,15,44,29.50
2012,08,16,15,45,29.50
2012,08,16,15,46,29.50
2012,08,16,15,47,29.50
2012,08,16,15,48,29.50
2012,08,16,15,49,29.60
2012,08,16,15,50,29.60
2012,08,16,15,51,29.60
2012,08,16,15,52,29.60
2012,08,16,15,53,29.50
2012,08,16,15,54,29.50
2012,08,16,15,55,29.50
2012,08,16,15,56,29.50
2012,08,16,15,57,29.40
2012,08,16,15,58,29.50
2012,08,16,15,59,29.50
2012,08,16,16,00,29.50
2012,08,16,16,01,29.50
2012,08,16,16,02,29.50
2012,08,16,16,03,29.60
2012,08,16,16,04,29.50
2012,08,16,16,05,29.60
2012,08,16,16,06,29.60
2012,08,16,16,07,29.60
2012,08,16,16,08,29.60
2012,08,16,16,09,29.60
2012,08,16,16,10,29.50
2012,08,16,16,11,29.50
2012,08,16,16,12,29.60
2012,08,16,16,13,29.60
2012,08,16,16,14,29.60
2012,08,16,16,15,29.70
2012,08,16,16,16,29.70
2012,08,16,16,17,29.60
2012,08,16,16,18,29.60
2012,08,16,16,19,29.60
2012,08,16,16,20,29.60
2012,08,16,16,21,29.60
2012,08,16,16,22,29.60
2012,08,16,16,23,29.60
2012,08,16,16,24,29.50
2012,08,16,16,25,29.50
2012,08,16,16,26,29.50
2012,08,16,16,27,29.40
2012,08,16,16,28,29.40
2012,08,16,16,29,29.40
2012,08,16,16,30,29.30
2012,08,16,16,31,29.30
2012,08,16,16,32,29.40
2012,08,16,16,33,29.40
2012,08,16,16,34,29.50
2012,08,16,16,35,29.50
2012,08,16,16,36,29.50
2012,08,16,16,37,29.60
2012,08,16,16,38,29.60
2012,08,16,16,39,29.70
2012,08,16,16,40,29.70
2012,08,16,16,41,29.70
2012,08,16,16,42,29.70
2012,08,16,16,43,29.70
2012,08,16,16,44,29.70
2012,08,16,16,45,29.70
2012,08,16,16,46,29.70
2012,08,16,16,47,29.70
2012,08,16,16,48,29.70
2012,08,16,16,49,29.70
2012,08,16,16,50,29.70
2012,08,16,16,51,29.70
2012,08,16,16,52,29.80
2012,08,16,16,53,29.80
2012,08,16,16,54,29.80
2012,08,16,16,55,29.80
2012,08,16,16,56,29.90
2012,08,16,16,57,29.90
2012,08,16,16,58,29.90
2012,08,16,16,59,30.00
2012,08,16,17,00,30.00
2012,08,16,17,01,30.00
2012,08,16,17,02,30.00
2012,08,16,17,03,30.10
2012,08,16,17,04,30.00
2012,08,16,17,05,30.10
2012,08,16,17,06,30.10
2012,08,16,17,07,30.10
2012,08,16,17,08,30.10
2012,08,16,17,09,30.10
2012,08,16,17,10,30.20
2012,08,16,17,11,30.20
2012,08,16,17,12,30.10
2012,08,16,17,13,30.10
2012,08,16,17,14,30.10
2012,08,16,17,15,30.10
2012,08,16,17,16,30.00
2012,08,16,17,17,30.00
2012,08,16,17,18,29.90
2012,08,16,17,19,29.90
2012,08,16,17,20,29.90
2012,08,16,17,21,29.90